STARLINK-1737 (46586 NORAD) Tracking and Keplerian Element Data

This shows tracking and keplerian element data for the satellite.

Feedback or suggestion? Click here.




ElementValue
Catalog46586
NameSTARLINK-1737
Epoch Orbit177
Epoch Day304.91667824
Epoch Year2020
RAAN321.8978
Inclination53.0017
Eccentricity0.0001252
Argument of Perigee64.8074
Mean Anonmoly214.0974
Mean Motion15.62752614
Decay Rate-9.9E-06
L11 46586U 20070BG 20304.91667824 -.00000990 00000-0 -49835-5 0 9994
L22 46586 53.0017 321.8978 0001252 64.8074 214.0974 15.62752614 1775

Live tracking and technical data element details for STARLINK-1737 (NORAD 46586). STARLINK-1737 can be tracked NOW for your location showing map with azimuth and elevation plus other details from your city location.

Track the satellite on the map from your city or location and see movement details for azimuth, elevation, latitude, longitude, range, height, and movement on the map or in text.







IsCatalogInMostPopularTable: catalog: 46586, numindb: 3
Update: records affected: 1



GetName: 46586 STARLINK-1737

Hit Count: updated at: Sat, 31 Oct 2020 10:11:37 GMT